Weather History for Chicago Executive, IL

Change the Weather History Date:

Tuesday, July 22, 2014

  Actual Average Record
Temperature  
Mean Temperature 81 °F 74 °F  
Max Temperature 91 °F 83 °F 93 °F (2001)
Min Temperature 71 °F 64 °F 54 °F (1996)
Degree Days  
Heating Degree Days 0 0  
Month to date heating degree days 3 0  
Since 1 June heating degree days 23 52  
Since 1 July heating degree days 3 0  
Cooling Degree Days 16 9  
Month to date cooling degree days 140 192  
Year to date cooling degree days 376 388  
Since 1 June cooling degree days 318 346  
Growing Degree Days 30 (Base 50)    
Moisture  
Dew Point 69 °F    
Average Humidity 66    
Maximum Humidity 78    
Minimum Humidity 52    
Precipitation  
Precipitation 0.02 in 0.14 in 2.77 in (2011)
Month to date precipitation 1.43 2.31  
Year to date precipitation 18.36 17.51  
Sea Level Pressure  
Sea Level Pressure 29.99 in    
Wind  
Wind Speed 11 mph (SW)    
Max Wind Speed 24 mph    
Max Gust Speed 33 mph    
Visibility 10 miles    
Events Rain , Thunderstorm    
T = Trace of Precipitation, MM = Missing Value Source: NWS Daily Summary

Daily Weather History Graph

Daily Weather History Graph

Search for Another Location

Airport:

Trip Planner

Search our weather history database for the weather conditions in past years. The results will help you decide how hot, cold, wet, or windy it might be!

Date:

Astronomy

Jul. 22, 2014 Rise Set
Actual Time 5:35 AM CDT 8:20 PM CDT
Civil Twilight 5:02 AM CDT 8:53 PM CDT
Nautical Twilight 4:21 AM CDT 9:34 PM CDT
Astronomical Twilight 3:33 AM CDT 10:21 PM CDT
Moon 2:08 AM CDT (7/22) 4:57 PM CDT (7/22)
Length of Visible Light 15h 50m
Length of Day
14h 45m
Waning Crescent, 16% of the Moon is Illuminated
Jul 22
Waning Crescent
Jul 26
New
Aug 3
First Quarter
Aug 10
Full
Aug 17
Last Quarter

Hourly Weather History & Observations

Time (CDT) Temp. Heat Index Dew Point Humidity Pressure Visibility Wind Dir Wind Speed Gust Speed Precip Events Conditions
12:52 AM 75.0 °F - 64.9 °F 71% 30.05 in 10.0 mi South 9.2 mph - N/A   Clear
1:52 AM 73.9 °F - 64.9 °F 73% 30.05 in 10.0 mi South 5.8 mph - N/A   Clear
2:52 AM 73.0 °F - 64.9 °F 76% 30.04 in 10.0 mi South 6.9 mph - N/A   Clear
3:52 AM 73.0 °F - 64.9 °F 76% 30.04 in 10.0 mi South 6.9 mph - N/A   Clear
4:52 AM 71.1 °F - 64.0 °F 78% 30.04 in 10.0 mi South 5.8 mph - N/A   Clear
5:52 AM 72.0 °F - 64.0 °F 76% 30.06 in 10.0 mi SSW 6.9 mph - N/A   Clear
6:52 AM 73.9 °F - 64.0 °F 71% 30.04 in 10.0 mi South 10.4 mph - N/A   Clear
7:52 AM 75.9 °F - 64.9 °F 69% 30.02 in 10.0 mi SSW 11.5 mph - N/A   Clear
9:52 AM 82.9 °F 85.0 °F 66.0 °F 56% 29.99 in 10.0 mi SW 11.5 mph 20.7 mph N/A   Clear
10:52 AM 84.0 °F 86.5 °F 66.9 °F 56% 30.00 in 10.0 mi SW 10.4 mph - N/A   Clear
11:52 AM 84.0 °F 87.0 °F 68.0 °F 58% 29.99 in 10.0 mi SSW 12.7 mph 17.3 mph N/A   Partly Cloudy
12:52 PM 88.0 °F 92.9 °F 70.0 °F 55% 29.96 in 10.0 mi SSW 15.0 mph - N/A   Scattered Clouds
1:52 PM 90.0 °F 95.4 °F 70.0 °F 52% 29.94 in 10.0 mi SSW 16.1 mph 23.0 mph N/A   Clear
3:52 PM 89.1 °F 96.0 °F 72.0 °F 57% 29.93 in 10.0 mi SSW 16.1 mph 23.0 mph N/A   Mostly Cloudy
4:52 PM 90.0 °F 97.9 °F 73.0 °F 57% 29.93 in 10.0 mi SW 8.1 mph 16.1 mph N/A   Overcast
5:52 PM 90.0 °F 99.0 °F 73.9 °F 59% 29.93 in 10.0 mi SW 10.4 mph - N/A   Mostly Cloudy
6:52 PM 89.1 °F 98.0 °F 73.9 °F 61% 29.94 in 10.0 mi SW 9.2 mph - N/A   Mostly Cloudy
7:52 PM 88.0 °F 96.5 °F 73.9 °F 63% 29.94 in 10.0 mi SW 6.9 mph - N/A   Mostly Cloudy
8:52 PM 87.1 °F 96.3 °F 75.0 °F 67% 29.94 in 10.0 mi WSW 8.1 mph - N/A   Partly Cloudy
9:52 PM 84.9 °F 93.3 °F 75.0 °F 72% 29.92 in 10.0 mi SW 9.2 mph - N/A   Clear
10:52 PM 84.0 °F 92.6 °F 75.9 °F 76% 29.94 in 9.0 mi NW 12.7 mph 25.3 mph 0.01 in Rain , Thunderstorm Light Thunderstorms and Rain
11:00 PM 82.9 °F 90.2 °F 75.0 °F 77% 29.96 in 8.0 mi NNW 10.4 mph - 0.01 in Rain , Thunderstorm Light Thunderstorms and Rain
11:14 PM 82.9 °F 87.5 °F 71.1 °F 67% 29.97 in 10.0 mi North 17.3 mph 25.3 mph 0.01 in Thunderstorm Overcast
11:39 PM 80.1 °F 82.7 °F 68.0 °F 67% 30.00 in 10.0 mi NNE 17.3 mph 32.2 mph 0.01 in   Overcast
11:52 PM 78.1 °F - 66.0 °F 66% 30.01 in 10.0 mi NNE 19.6 mph 32.2 mph 0.01 in   Overcast